Total_Precipitation_Accumulation
1.53 1.54 1.58 1.54 1.53 1.58 1.50 1.44 1.47 1.62 1.68 1.65 1.61 1.63 1.63 1.59 1.65 1.69 1.52 1.62 1.74 1.77 1.79 1.94 2.00 2.06 2.06 2.06 2.19 2.30 2.53 2.77 2.49 2.00 1.88 1.88 1.99 1.98 1.89 1.66 1.47 1.39 1.24
1.57 1.67 1.77 1.81 1.82 1.75 1.55 1.45 1.51 1.60 1.66 1.68 1.68 1.67 1.57 1.59 1.77 1.81 1.70 1.76 1.82 1.80 1.84 1.96 1.87 2.00 2.14 2.12 2.25 2.26 2.36 2.65 2.55 2.30 2.24 2.19 2.18 2.07 2.04 1.84 1.53 1.38 1.31
1.83 2.02 2.21 2.27 2.10 1.89 1.76 1.67 1.69 1.69 1.71 1.77 1.82 1.86 1.85 1.87 1.87 1.91 2.00 1.96 1.88 1.79 1.85 1.84 1.80 1.99 2.02 2.12 2.24 2.20 2.17 2.31 2.48 2.41 2.35 2.42 2.39 2.26 2.16 1.97 1.79 1.73 1.44
1.58 1.87 2.08 2.19 2.04 1.94 1.90 1.76 1.69 1.72 1.79 1.88 1.91 2.04 2.22 2.27 2.25 2.18 2.08 2.02 1.95 1.89 1.86 1.82 1.81 1.86 1.90 1.97 2.07 2.16 2.22 2.32 2.42 2.43 2.48 2.61 2.59 2.62 2.54 2.30 2.18 2.11 1.82
1.39 1.53 1.77 2.02 1.86 1.61 1.55 1.52 1.49 1.58 1.72 2.00 2.14 2.21 2.46 2.60 2.45 2.45 2.36 2.26 2.23 2.05 1.94 1.86 1.76 1.77 1.82 1.85 1.80 1.90 2.02 2.16 2.17 2.23 2.29 2.50 2.59 2.70 2.67 2.48 2.35 2.33 2.16
1.29 1.42 1.60 1.72 1.56 1.38 1.27 1.30 1.33 1.44 1.62 1.80 1.94 2.06 2.11 1.96 2.11 2.12 2.11 2.14 2.17 2.06 2.00 1.95 1.81 1.71 1.68 1.63 1.54 1.55 1.62 1.71 1.87 2.08 2.13 2.33 2.52 2.67 2.85 2.89 2.71 2.54 2.38
1.26 1.31 1.44 1.56 1.55 1.44 1.27 1.26 1.32 1.40 1.56 1.67 1.70 1.78 1.75 1.80 1.81 1.61 1.57 1.55 1.70 1.82 1.89 1.88 1.66 1.52 1.60 1.53 1.55 1.51 1.49 1.58 1.67 1.90 2.07 2.14 2.35 2.54 2.76 2.90 2.89 2.78 2.58
1.26 1.35 1.53 1.69 1.70 1.63 1.55 1.47 1.52 1.58 1.59 1.58 1.63 1.68 1.75 1.74 1.64 1.43 1.43 1.39 1.52 1.64 1.72 1.77 1.73 1.65 1.65 1.68 1.61 1.50 1.41 1.47 1.56 1.54 1.58 1.72 1.97 2.32 2.50 2.54 2.67 2.68 2.54
1.47 1.51 1.58 1.74 1.80 1.82 1.87 1.90 1.93 1.92 1.79 1.72 1.76 1.82 1.82 1.76 1.64 1.45 1.45 1.40 1.51 1.56 1.57 1.60 1.62 1.56 1.62 1.50 1.40 1.39 1.38 1.41 1.40 1.38 1.35 1.39 1.52 1.73 2.07 2.22 2.30 2.26 2.15
1.55 1.69 1.74 1.90 2.01 1.99 2.08 2.18 2.24 2.27 2.19 2.17 2.09 1.98 1.87 1.77 1.72 1.45 1.38 1.33 1.43 1.50 1.57 1.54 1.48 1.36 1.31 1.25 1.22 1.33 1.31 1.30 1.35 1.30 1.21 1.15 1.12 1.27 1.57 1.75 1.83 1.87 1.78
1.64 1.74 1.83 2.04 2.21 2.35 2.49 2.59 2.56 2.53 2.55 2.50 2.28 2.13 2.08 2.04 1.88 1.45 1.28 1.24 1.31 1.47 1.54 1.53 1.43 1.35 1.17 1.13 1.12 1.16 1.19 1.17 1.25 1.28 1.24 1.21 1.21 1.21 1.26 1.40 1.60 1.72 1.68
1.73 1.86 2.04 2.17 2.23 2.32 2.62 2.70 2.68 2.64 2.54 2.39 2.25 2.04 1.93 1.89 1.72 1.45 1.26 1.29 1.40 1.49 1.51 1.48 1.47 1.34 1.13 1.07 1.00 0.99 1.00 0.94 0.97 1.08 1.07 1.03 1.04 1.05 1.08 1.22 1.42 1.55 1.63
1.73 1.93 2.12 2.25 2.42 2.58 2.69 2.64 2.57 2.54 2.45 2.31 2.18 1.99 1.94 2.02 1.95 1.63 1.42 1.40 1.43 1.37 1.38 1.42 1.35 1.21 1.01 0.88 0.87 0.85 0.79 0.77 0.85 0.95 0.96 0.90 0.87 0.91 1.01 1.16 1.30 1.44 1.48
1.58 1.73 1.89 1.96 2.03 2.18 2.36 2.31 2.20 2.18 2.23 2.20 2.14 2.04 1.99 2.01 1.98 1.72 1.50 1.47 1.45 1.39 1.33 1.29 1.17 1.11 0.97 0.87 0.87 0.81 0.73 0.80 0.89 0.92 0.95 0.96 0.92 0.94 0.98 1.04 1.15 1.26 1.33
1.40 1.47 1.55 1.60 1.69 1.81 1.91 1.99 1.95 1.93 1.89 1.89 1.87 1.85 1.76 1.72 1.76 1.61 1.45 1.50 1.56 1.56 1.50 1.43 1.31 1.20 1.07 0.97 0.96 0.97 0.98 1.05 1.03 1.01 1.06 1.11 1.08 1.01 0.97 1.01 1.14 1.19 1.15
1.44 1.41 1.40 1.45 1.51 1.55 1.63 1.64 1.62 1.50 1.39 1.29 1.23 1.23 1.22 1.26 1.37 1.29 1.21 1.28 1.37 1.44 1.38 1.32 1.27 1.19 1.11 1.10 1.14 1.16 1.15 1.15 1.12 1.13 1.15 1.18 1.18 1.09 1.00 0.99 1.09 1.15 1.10
1.55 1.46 1.40 1.34 1.34 1.39 1.44 1.50 1.50 1.34 1.15 1.00 0.91 0.87 0.86 0.93 1.02 1.03 1.04 1.13 1.25 1.34 1.31 1.31 1.28 1.25 1.18 1.16 1.19 1.19 1.16 1.14 1.18 1.19 1.20 1.20 1.25 1.24 1.20 1.14 1.12 1.17 1.15
1.62 1.53 1.42 1.32 1.27 1.28 1.31 1.32 1.38 1.44 1.34 1.16 0.95 0.80 0.73 0.71 0.75 0.85 0.96 1.07 1.20 1.23 1.22 1.27 1.26 1.24 1.21 1.18 1.15 1.16 1.15 1.17 1.17 1.17 1.20 1.23 1.29 1.30 1.31 1.24 1.16 1.14 1.16
1.45 1.38 1.29 1.24 1.24 1.23 1.25 1.24 1.22 1.28 1.29 1.24 1.09 0.92 0.80 0.73 0.73 0.81 0.84 0.91 1.09 1.17 1.18 1.17 1.13 1.09 1.06 1.07 1.06 1.03 1.03 1.04 1.06 1.13 1.13 1.14 1.20 1.19 1.15 1.12 1.12 1.12 1.13
1.40 1.34 1.23 1.19 1.23 1.24 1.21 1.21 1.19 1.25 1.26 1.26 1.15 0.97 0.85 0.75 0.73 0.76 0.78 0.91 1.09 1.12 1.09 1.04 1.04 1.01 1.01 1.01 1.01 0.99 0.99 1.00 1.05 1.13 1.14 1.13 1.15 1.14 1.08 1.08 1.13 1.15 1.13
1.35 1.27 1.13 1.09 1.10 1.16 1.20 1.18 1.15 1.16 1.17 1.21 1.12 0.91 0.79 0.72 0.74 0.79 0.87 0.99 1.09 1.04 1.00 0.96 0.94 0.90 0.89 0.89 0.91 0.94 0.98 1.03 1.06 1.10 1.14 1.16 1.20 1.18 1.13 1.13 1.17 1.22 1.22
1.35 1.27 1.13 0.98 0.95 1.01 1.06 1.08 1.08 1.07 1.07 1.09 1.02 0.81 0.71 0.63 0.69 0.78 0.85 0.93 0.97 0.96 0.94 0.93 0.88 0.81 0.80 0.82 0.86 0.93 0.98 1.00 1.04 1.12 1.15 1.17 1.23 1.20 1.20 1.21 1.21 1.25 1.29
1.22 1.14 1.03 0.87 0.84 0.90 0.97 1.04 1.03 0.97 0.96 0.95 0.86 0.74 0.69 0.71 0.74 0.81 0.89 0.93 0.95 0.97 0.95 0.90 0.84 0.80 0.79 0.80 0.82 0.89 0.95 1.00 1.00 1.04 1.09 1.13 1.20 1.22 1.25 1.25 1.21 1.24 1.26
1.05 1.05 1.01 0.84 0.79 0.90 0.99 1.06 1.02 0.92 0.90 0.87 0.78 0.77 0.77 0.80 0.81 0.82 0.85 0.89 0.91 0.90 0.89 0.86 0.80 0.75 0.75 0.78 0.81 0.83 0.86 0.89 0.90 0.95 0.98 1.04 1.09 1.14 1.17 1.18 1.17 1.19 1.23
0.97 0.97 1.01 0.90 0.82 0.89 0.98 1.02 0.99 0.91 0.86 0.79 0.75 0.78 0.80 0.78 0.79 0.81 0.83 0.87 0.86 0.83 0.79 0.76 0.79 0.80 0.79 0.79 0.82 0.83 0.84 0.77 0.73 0.75 0.79 0.88 0.92 0.99 1.02 1.01 1.04 1.10 1.17
0.92 0.91 0.95 0.93 0.88 0.92 1.00 1.01 1.00 0.92 0.86 0.80 0.76 0.76 0.77 0.76 0.77 0.77 0.77 0.78 0.78 0.79 0.77 0.76 0.74 0.73 0.73 0.71 0.67 0.67 0.63 0.57 0.55 0.60 0.64 0.71 0.78 0.87 0.89 0.89 0.88 0.96 1.05